Hourly Weather Bolshoy Ermuchash

Today, 2 August, Monday

Time Temperature Precipitation Wind Pressure Humidity
00:00 +18°C° 0 mm 2 mps 745 mmHg 74%
01:00 +18°C° 0 mm 2 mps 746 mmHg 73%
02:00 +18°C° 0 mm 2 mps 746 mmHg 72%
03:00 +18°C° 0 mm 2 mps 746 mmHg 73%
04:00 +18°C° 0 mm 3 mps 746 mmHg 72%
05:00 +19°C° 0 mm 3 mps 746 mmHg 71%
06:00 +20°C° 0 mm 3 mps 746 mmHg 69%
07:00 +21°C° 0 mm 3 mps 746 mmHg 64%
08:00 +23°C° 0 mm 4 mps 746 mmHg 59%
09:00 +26°C° 0 mm 4 mps 746 mmHg 54%
10:00 +27°C° 0 mm 4 mps 746 mmHg 50%
11:00 +28°C° 0 mm 4 mps 746 mmHg 47%
12:00 +30°C° 0 mm 4 mps 746 mmHg 43%
13:00 +30°C° 0 mm 5 mps 746 mmHg 42%
14:00 +32°C° 0 mm 5 mps 746 mmHg 41%
15:00 +32°C° 0 mm 5 mps 745 mmHg 40%
16:00 +30°C° 0 mm 4 mps 745 mmHg 45%
17:00 +29°C° 0 mm 3 mps 745 mmHg 51%
18:00 +28°C° 0 mm 2 mps 745 mmHg 56%
19:00 +27°C° 0.2 mm 2 mps 745 mmHg 62%
20:00 +25°C° 0.2 mm 2 mps 745 mmHg 67%
21:00 +23°C° 0.2 mm 2 mps 745 mmHg 73%
22:00 +23°C° 0 mm 2 mps 745 mmHg 74%
23:00 +21°C° 0 mm 2 mps 745 mmHg 76%

Tomorrow, 3 August, Tuesday

Time Temperature Precipitation Wind Pressure Humidity
00:00 +20°C° 0 mm 2 mps 745 mmHg 77%
01:00 +20°C° 0 mm 2 mps 745 mmHg 76%
02:00 +20°C° 0 mm 2 mps 744 mmHg 75%
03:00 +20°C° 0 mm 3 mps 744 mmHg 73%
04:00 +20°C° 0 mm 3 mps 744 mmHg 71%
05:00 +21°C° 0 mm 3 mps 744 mmHg 69%
06:00 +22°C° 0 mm 3 mps 744 mmHg 67%
07:00 +25°C° 0 mm 3 mps 744 mmHg 59%
08:00 +28°C° 0 mm 4 mps 744 mmHg 52%
09:00 +30°C° 0 mm 5 mps 744 mmHg 44%
10:00 +33°C° 0 mm 5 mps 743 mmHg 41%
11:00 +34°C° 0 mm 5 mps 743 mmHg 38%
12:00 +35°C° 0 mm 5 mps 743 mmHg 35%
13:00 +35°C° 0 mm 5 mps 743 mmHg 34%
14:00 +36°C° 0 mm 5 mps 743 mmHg 34%
15:00 +36°C° 0 mm 5 mps 743 mmHg 33%
16:00 +33°C° 0.7 mm 4 mps 743 mmHg 47%
17:00 +28°C° 0.7 mm 3 mps 743 mmHg 62%
18:00 +25°C° 0.7 mm 1 mps 743 mmHg 77%
19:00 +23°C° 1.6 mm 1 mps 743 mmHg 81%
20:00 +22°C° 1.6 mm 1 mps 743 mmHg 85%
21:00 +21°C° 1.6 mm 1 mps 743 mmHg 90%
22:00 +19°C° 0.2 mm 2 mps 744 mmHg 91%
23:00 +19°C° 0.2 mm 3 mps 744 mmHg 92%

Day after tomorrow, 4 August, Wednesday

Time Temperature Precipitation Wind Pressure Humidity
00:00 +18°C° 0.2 mm 3 mps 745 mmHg 93%
01:00 +19°C° 0 mm 3 mps 744 mmHg 92%
02:00 +19°C° 0 mm 2 mps 744 mmHg 92%
03:00 +19°C° 0 mm 2 mps 744 mmHg 91%
04:00 +19°C° 0 mm 2 mps 744 mmHg 91%
05:00 +20°C° 0 mm 2 mps 744 mmHg 90%
06:00 +21°C° 0 mm 1 mps 745 mmHg 89%
07:00 +22°C° 0.1 mm 1 mps 745 mmHg 86%
08:00 +23°C° 0.1 mm 1 mps 745 mmHg 82%
09:00 +24°C° 0.1 mm 1 mps 745 mmHg 79%
10:00 +23°C° 1.7 mm 2 mps 745 mmHg 84%
11:00 +21°C° 1.7 mm 2 mps 745 mmHg 88%
12:00 +19°C° 1.7 mm 3 mps 745 mmHg 93%
13:00 +20°C° 0.3 mm 3 mps 746 mmHg 88%
14:00 +21°C° 0.3 mm 2 mps 746 mmHg 83%
15:00 +23°C° 0.3 mm 2 mps 746 mmHg 78%
16:00 +23°C° 0 mm 2 mps 746 mmHg 76%
17:00 +23°C° 0 mm 1 mps 746 mmHg 74%
18:00 +23°C° 0 mm 1 mps 746 mmHg 73%
19:00 +22°C° 0 mm 1 mps 746 mmHg 76%
20:00 +21°C° 0 mm 1 mps 746 mmHg 80%
21:00 +19°C° 0 mm 1 mps 746 mmHg 84%
22:00 +19°C° 0.1 mm 1 mps 746 mmHg 85%
23:00 +18°C° 0.1 mm 1 mps 747 mmHg 85%

5 August, Thursday

Time Temperature Precipitation Wind Pressure Humidity
00:00 +18°C° 0.1 mm 1 mps 747 mmHg 86%
01:00 +18°C° 0 mm 1 mps 747 mmHg 87%
02:00 +16°C° 0 mm 1 mps 747 mmHg 88%
03:00 +16°C° 0 mm 1 mps 747 mmHg 89%
04:00 +18°C° 0 mm 1 mps 747 mmHg 87%
05:00 +18°C° 0 mm 1 mps 747 mmHg 85%
06:00 +19°C° 0 mm 1 mps 748 mmHg 82%
07:00 +19°C° 0 mm 2 mps 748 mmHg 76%
08:00 +21°C° 0 mm 2 mps 748 mmHg 70%
09:00 +23°C° 0 mm 2 mps 748 mmHg 63%
10:00 +23°C° 0.1 mm 2 mps 748 mmHg 63%
11:00 +22°C° 0.1 mm 3 mps 748 mmHg 64%
12:00 +22°C° 0.1 mm 3 mps 748 mmHg 64%
13:00 +22°C° 0 mm 4 mps 748 mmHg 60%
14:00 +23°C° 0 mm 4 mps 749 mmHg 56%
15:00 +25°C° 0 mm 4 mps 749 mmHg 52%
16:00 +23°C° 0 mm 4 mps 749 mmHg 55%
17:00 +22°C° 0 mm 3 mps 749 mmHg 58%
18:00 +23°C° 0 mm 2 mps 749 mmHg 60%
19:00 +20°C° 0 mm 2 mps 749 mmHg 64%
20:00 +18°C° 0 mm 2 mps 749 mmHg 68%
21:00 +17°C° 0 mm 2 mps 749 mmHg 71%
22:00 +16°C° 0 mm 2 mps 749 mmHg 71%
23:00 +16°C° 0 mm 2 mps 749 mmHg 71%

6 August, Friday

Time Temperature Precipitation Wind Pressure Humidity
00:00 +15°C° 0 mm 2 mps 749 mmHg 71%
01:00 +15°C° 0 mm 2 mps 749 mmHg 71%
02:00 +14°C° 0 mm 2 mps 749 mmHg 72%
03:00 +14°C° 0 mm 2 mps 749 mmHg 73%
04:00 +15°C° 0 mm 2 mps 749 mmHg 71%
05:00 +15°C° 0 mm 2 mps 750 mmHg 70%
06:00 +16°C° 0 mm 2 mps 750 mmHg 69%
07:00 +18°C° 0 mm 2 mps 750 mmHg 62%
08:00 +19°C° 0 mm 2 mps 750 mmHg 56%
09:00 +21°C° 0 mm 3 mps 750 mmHg 50%
10:00 +21°C° 0 mm 3 mps 750 mmHg 47%
11:00 +22°C° 0 mm 4 mps 750 mmHg 44%
12:00 +22°C° 0 mm 4 mps 750 mmHg 41%
13:00 +22°C° 0 mm 4 mps 750 mmHg 41%
14:00 +22°C° 0 mm 4 mps 750 mmHg 41%
15:00 +22°C° 0 mm 4 mps 750 mmHg 41%
16:00 +21°C° 0 mm 4 mps 751 mmHg 44%
17:00 +21°C° 0 mm 3 mps 751 mmHg 47%
18:00 +20°C° 0 mm 3 mps 751 mmHg 50%
19:00 +18°C° 0 mm 3 mps 751 mmHg 55%
20:00 +16°C° 0 mm 3 mps 751 mmHg 60%
21:00 +15°C° 0 mm 2 mps 752 mmHg 65%
22:00 +14°C° 0 mm 2 mps 752 mmHg 68%
23:00 +13°C° 0 mm 2 mps 752 mmHg 70%

7 August, Saturday

Time Temperature Precipitation Wind Pressure Humidity
00:00 +12°C° 0 mm 2 mps 752 mmHg 73%
01:00 +12°C° 0 mm 2 mps 752 mmHg 74%
02:00 +10°C° 0 mm 2 mps 752 mmHg 74%
03:00 +10°C° 0 mm 2 mps 753 mmHg 75%
04:00 +12°C° 0 mm 2 mps 753 mmHg 73%
05:00 +13°C° 0 mm 2 mps 753 mmHg 71%
06:00 +14°C° 0 mm 2 mps 754 mmHg 69%
07:00 +15°C° 0 mm 2 mps 754 mmHg 60%
08:00 +17°C° 0 mm 3 mps 754 mmHg 52%
09:00 +19°C° 0 mm 3 mps 754 mmHg 44%
10:00 +20°C° 0 mm 3 mps 754 mmHg 41%
11:00 +21°C° 0 mm 3 mps 754 mmHg 39%
12:00 +21°C° 0 mm 4 mps 754 mmHg 36%
13:00 +21°C° 0 mm 4 mps 754 mmHg 35%
14:00 +22°C° 0 mm 4 mps 754 mmHg 35%
15:00 +22°C° 0 mm 4 mps 754 mmHg 34%
16:00 +21°C° 0 mm 3 mps 754 mmHg 39%
17:00 +20°C° 0 mm 3 mps 754 mmHg 45%
18:00 +19°C° 0 mm 2 mps 754 mmHg 50%
19:00 +18°C° 0 mm 2 mps 754 mmHg 52%
20:00 +16°C° 0 mm 2 mps 754 mmHg 55%
21:00 +14°C° 0 mm 1 mps 754 mmHg 58%
22:00 +14°C° 0 mm 1 mps 754 mmHg 59%
23:00 +13°C° 0 mm 1 mps 755 mmHg 60%
Show more

We Need Your Consent

Meteoprog and our Service Providers may store and access personal data such as cookies, device identifiers or other similar technologies on your device and process such data to personalise content and ads, as well as provide social media features and to analyse the traffic.

  • Store and/or access information on your device

    Cookies, device identifiers or other information can be stored or accessed on your device for the purposes indicated above.

  • Personalised ads and content, ad and content measurement, audience insights, and products development

    Ads and content can be personalised based on a profile. More data can be added to better personalise ads and content. Ad and content performance can be measured. Insights about the audience who saw the ads and content can be derived. Such data can be used to develop or improve user’s experience, systems and software.

By clicking ‘I Agree’ you will allow the use of indicated cookies, device identifiers, web beacons or other similar technologies. Your settings can be changed in the browser on your device.

For certain purposes, legitimate interests may be relied on, rather than consent. You can read more about this in our Privacy and Cookie Policy.